Weather History for Norwood, MA

Change the Weather History Date:

Wednesday, October 3, 2012

  Actual Average Record
Temperature  
Mean Temperature 63 °F -  
Max Temperature 64 °F 64 °F 81 °F (2000)
Min Temperature 62 °F 39 °F 30 °F (2003)
Degree Days  
Heating Degree Days 2    
Growing Degree Days 13 (Base 50)    
Moisture  
Dew Point 61 °F    
Average Humidity 92    
Maximum Humidity 94    
Minimum Humidity 87    
Precipitation  
Precipitation 0.02 in - - ()
Sea Level Pressure  
Sea Level Pressure 30.09 in    
Wind  
Wind Speed 2 mph (NE)    
Max Wind Speed 7 mph    
Max Gust Speed -    
Visibility 3 miles    
Events      
Averages and records for this station are not official NWS values.
T = Trace of Precipitation, MM = Missing Value Source: NWS Daily Summary

Daily Weather History Graph

Daily Weather History Graph

Search for Another Location

Airport:

Trip Planner

Search our weather history database for the weather conditions in past years. The results will help you decide how hot, cold, wet, or windy it might be!

Date:

Astronomy

Oct. 03, 2012 Rise Set
Actual Time 6:44 AM EDT 6:22 PM EDT
Civil Twilight 6:16 AM EDT 6:49 PM EDT
Nautical Twilight 5:43 AM EDT 7:22 PM EDT
Astronomical Twilight 5:11 AM EDT 7:54 PM EDT
Moon 8:07 PM EDT (10/3) 10:09 AM EDT (10/3)
Length of Visible Light 12h 33m
Length of Day
11h 37m
Waning Gibbous, 89% of the Moon is Illuminated
Oct 3
Waning Gibbous
Oct 8
Last Quarter
Oct 15
New
Oct 21
First Quarter
Oct 29
Full

Hourly Weather History & Observations

Time (EDT) Temp. Dew Point Humidity Pressure Visibility Wind Dir Wind Speed Gust Speed Precip Events Conditions
12:31 AM 62.6 °F 60.8 °F 94% 30.05 in 5.0 mi Calm Calm - N/A   Overcast
12:53 AM 62.1 °F 60.1 °F 93% 30.05 in 5.0 mi Calm Calm - N/A   Overcast
1:53 AM 63.0 °F 60.1 °F 90% 30.04 in 4.0 mi Calm Calm - 0.01 in   Overcast
2:53 AM 63.0 °F 60.1 °F 90% 30.03 in 5.0 mi Calm Calm - N/A   Overcast
3:53 AM 63.0 °F 60.1 °F 90% 30.04 in 5.0 mi Calm Calm - N/A   Overcast
4:53 AM 63.0 °F 60.1 °F 90% 30.04 in 4.0 mi Calm Calm - N/A   Overcast
5:53 AM 63.0 °F 60.1 °F 90% 30.06 in 5.0 mi Calm Calm - N/A   Overcast
6:53 AM 63.0 °F 59.0 °F 87% 30.07 in 3.0 mi Variable 3.5 mph - N/A   Overcast
7:02 AM 62.6 °F 59.0 °F 88% 30.07 in 3.0 mi Calm Calm - N/A   Overcast
7:53 AM 62.1 °F 59.0 °F 90% 30.09 in 1.0 mi Calm Calm - N/A   Overcast
8:37 AM 62.6 °F 60.8 °F 94% 30.09 in 0.8 mi NE 4.6 mph - N/A   Overcast
8:46 AM 62.6 °F 60.8 °F 94% 30.09 in 0.8 mi NNE 4.6 mph - N/A   Overcast
8:53 AM 62.1 °F 60.1 °F 93% 30.09 in 0.8 mi NE 3.5 mph - N/A   Overcast
9:00 AM 62.6 °F 60.8 °F 94% 30.09 in 1.0 mi NE 3.5 mph - N/A   Overcast
9:53 AM 64.0 °F 61.0 °F 90% 30.09 in 1.5 mi North 4.6 mph - N/A   Overcast
10:53 AM 64.0 °F 62.1 °F 93% 30.09 in 1.2 mi NE 5.8 mph - N/A   Overcast
11:15 AM 64.4 °F 62.6 °F 94% 30.10 in 1.2 mi NNE 3.5 mph - N/A   Overcast
11:53 AM 64.9 °F 62.1 °F 90% 30.09 in 1.2 mi NNE 4.6 mph - N/A   Overcast
12:05 PM 64.4 °F 62.6 °F 94% 30.09 in 1.2 mi NNE 5.8 mph - N/A   Overcast
12:53 PM 64.0 °F 62.1 °F 93% 30.09 in 1.5 mi NNE 3.5 mph - N/A   Overcast
1:00 PM 64.4 °F 62.6 °F 94% 30.09 in 2.0 mi ENE 5.8 mph - N/A   Overcast
1:43 PM 64.4 °F 60.8 °F 88% 30.08 in 4.0 mi ENE 5.8 mph - N/A   Overcast
1:53 PM 64.0 °F 61.0 °F 90% 30.08 in 4.0 mi ENE 5.8 mph - N/A   Overcast
2:53 PM 64.0 °F 61.0 °F 90% 30.09 in 1.5 mi ENE 4.6 mph - N/A   Overcast
3:31 PM 64.4 °F 60.8 °F 88% 30.09 in 3.0 mi East 5.8 mph - N/A   Overcast
4:26 PM 62.6 °F 60.8 °F 94% 30.09 in 9.0 mi NE 4.6 mph - N/A   Overcast
4:53 PM 63.0 °F 60.1 °F 90% 30.09 in 6.0 mi NNE 3.5 mph - N/A   Overcast
5:37 PM 62.6 °F 60.8 °F 94% 30.11 in 2.0 mi Calm Calm - N/A   Overcast
5:53 PM 62.1 °F 60.1 °F 93% 30.11 in 2.5 mi ENE 6.9 mph - N/A   Overcast
6:53 PM 62.1 °F 60.1 °F 93% 30.12 in 2.5 mi Variable 3.5 mph - N/A   Overcast
7:53 PM 62.1 °F 60.1 °F 93% 30.12 in 2.0 mi Calm Calm - N/A   Overcast
8:53 PM 62.1 °F 60.1 °F 93% 30.13 in 2.0 mi NE 4.6 mph - N/A   Overcast
9:53 PM 62.1 °F 60.1 °F 93% 30.14 in 2.0 mi NE 3.5 mph - 0.01 in   Overcast
10:07 PM 62.6 °F 60.8 °F 94% 30.14 in 4.0 mi Calm Calm - N/A   Overcast
10:35 PM 62.6 °F 60.8 °F 94% 30.14 in 2.5 mi NE 3.5 mph - N/A   Overcast
10:53 PM 62.1 °F 60.1 °F 93% 30.14 in 2.5 mi NNE 3.5 mph - N/A   Overcast
11:19 PM 62.6 °F 60.8 °F 94% 30.14 in 3.0 mi NE 3.5 mph - N/A   Overcast
11:29 PM 62.6 °F 60.8 °F 94% 30.15 in 2.5 mi Calm Calm - N/A   Overcast
11:44 PM 62.6 °F 60.8 °F 94% 30.15 in 3.0 mi NNE 3.5 mph - N/A   Overcast
11:53 PM 62.1 °F 60.1 °F 93% 30.15 in 2.5 mi Calm Calm - N/A   Overcast